Location: Arcadia
(55.4009°N, 116.1279°W)
Time: 13:03:24
(UTC+00:00)

Envisat - Pass Details

Date: 07 June 2023
Orbit: 763 x 764 km, 98.2° (Epoch: 28 September)

Event Time Altitude Azimuth Distance (km) Brightness Sun altitude
Rises 09:55:38 0° 28° (NNE) 3,242 9.0 -6.9°
Reaches altitude 10° 09:59:45 10° 61° (ENE) 2,309 6.6 -6.6°
Maximum altitude 10:01:28 12° 81° (E) 2,196 6.0 -6.5°
Drops below altitude 10° 10:03:12 10° 101° (E) 2,304 5.8 -6.4°
Sets 10:07:16 0° 134° (SE) 3,223 6.1 -6.1°
